Location: S�tio Afonso Gruber
(26.1760°S, 49.5250°W)
Time: 21:41:15
(UTC+00:00)

Cosmos 2016 Rocket - Pass Details

Date: 08 October 2020
Orbit: 946 x 1001 km, 83.0° (Epoch: 27 October)

Event Time Altitude Azimuth Distance (km) Brightness Sun altitude
Exits shadow 08:20:53 - 297° (WNW) 2,987 5.9 -7.2°
Reaches altitude 10° 08:22:07 10° 288° (WNW) 2,729 5.7 -7.0°
Maximum altitude 08:25:27 15° 255° (WSW) 2,413 5.5 -6.2°
Drops below altitude 10° 08:28:49 10° 223° (SW) 2,765 6.1 -5.5°
Sets 08:32:44 0° 200° (SSW) 3,732 6.9 -4.6°
